When you browse on this site, cookies collect data to enhance your experience and personalize the content and advertising you see.
Visit our Privacy Policy to learn more. By continuing to use the site, you agree to this use of cookies and data.
  • în România
  • Lista ţărilor
  • Pe 7 zile
  • Temperatura apei
  • Hartă satelitară
  • Meteo pe hartă
  • Widget-uri
  • user-avatar
    Intrare

    Meteo pe oră la Oppola

    Astăzi, 20 Februarie, Miercuri

    Timp Temperatura Precipitaţii Vânt Presiune Umiditate
    00:00 -1°C° 1 mm 4 m/s 729 mmHg 95%
    01:00 -1°C° 1 mm 4 m/s 728 mmHg 95%
    02:00 -2°C° 0 mm 4 m/s 728 mmHg 94%
    03:00 -2°C° 0.6 mm 4 m/s 727 mmHg 95%
    04:00 -1°C° 0.6 mm 3 m/s 726 mmHg 95%
    05:00 -1°C° 0.6 mm 3 m/s 726 mmHg 96%
    06:00 -1°C° 0.3 mm 3 m/s 726 mmHg 96%
    07:00 -1°C° 0.3 mm 2 m/s 726 mmHg 97%
    08:00 -1°C° 0 mm 2 m/s 725 mmHg 97%
    09:00 -1°C° 0.1 mm 2 m/s 725 mmHg 98%
    10:00 -1°C° 0.1 mm 2 m/s 725 mmHg 99%
    11:00 -1°C° 0.1 mm 2 m/s 726 mmHg 99%
    12:00 -1°C° 0.1 mm 2 m/s 726 mmHg 99%
    13:00 -1°C° 0.1 mm 2 m/s 726 mmHg 99%
    14:00 -1°C° 0 mm 2 m/s 726 mmHg 99%
    15:00 -1°C° 0.2 mm 2 m/s 726 mmHg 99%
    16:00 -1°C° 0.2 mm 2 m/s 727 mmHg 98%
    17:00 -1°C° 0.2 mm 2 m/s 727 mmHg 98%
    18:00 -1°C° 0.1 mm 3 m/s 728 mmHg 96%
    19:00 -2°C° 0.1 mm 3 m/s 728 mmHg 94%
    20:00 -4°C° 0.1 mm 4 m/s 729 mmHg 93%
    21:00 -5°C° 0.2 mm 4 m/s 730 mmHg 91%
    22:00 -8°C° 0.2 mm 5 m/s 730 mmHg 90%
    23:00 -10°C° 0.2 mm 5 m/s 731 mmHg 89%

    Mâine, 21 Februarie, Joi

    Timp Temperatura Precipitaţii Vânt Presiune Umiditate
    00:00 -11°C° 0.1 mm 6 m/s 732 mmHg 87%
    01:00 -11°C° 0.1 mm 6 m/s 734 mmHg 86%
    02:00 -12°C° 0.1 mm 6 m/s 735 mmHg 85%
    03:00 -14°C° 0.1 mm 6 m/s 736 mmHg 84%
    04:00 -14°C° 0.1 mm 6 m/s 737 mmHg 83%
    05:00 -14°C° 0.1 mm 7 m/s 738 mmHg 82%
    06:00 -15°C° 0.1 mm 7 m/s 739 mmHg 81%
    07:00 -15°C° 0.1 mm 6 m/s 740 mmHg 80%
    08:00 -15°C° 0.1 mm 6 m/s 741 mmHg 78%
    09:00 -15°C° 0 mm 6 m/s 742 mmHg 78%
    10:00 -14°C° 0 mm 7 m/s 743 mmHg 77%
    11:00 -14°C° 0 mm 7 m/s 744 mmHg 76%
    12:00 -14°C° 0 mm 6 m/s 745 mmHg 77%
    13:00 -14°C° 0 mm 6 m/s 746 mmHg 77%
    14:00 -12°C° 0 mm 6 m/s 746 mmHg 77%
    15:00 -14°C° 0 mm 6 m/s 747 mmHg 79%
    16:00 -13°C° 0 mm 5 m/s 748 mmHg 80%
    17:00 -13°C° 0 mm 5 m/s 749 mmHg 82%
    18:00 -14°C° 0 mm 5 m/s 749 mmHg 83%
    19:00 -14°C° 0 mm 5 m/s 750 mmHg 83%
    20:00 -14°C° 0 mm 5 m/s 751 mmHg 84%
    21:00 -14°C° 0 mm 5 m/s 751 mmHg 85%
    22:00 -14°C° 0 mm 5 m/s 752 mmHg 86%
    23:00 -14°C° 0 mm 5 m/s 753 mmHg 87%

    Poimâine, 22 Februarie, Vineri

    Timp Temperatura Precipitaţii Vânt Presiune Umiditate
    00:00 -14°C° 0 mm 5 m/s 754 mmHg 87%
    01:00 -15°C° 0 mm 5 m/s 754 mmHg 88%
    02:00 -15°C° 0 mm 4 m/s 755 mmHg 88%
    03:00 -14°C° 0 mm 4 m/s 756 mmHg 88%
    04:00 -14°C° 0 mm 4 m/s 756 mmHg 88%
    05:00 -14°C° 0 mm 4 m/s 757 mmHg 88%
    06:00 -14°C° 0 mm 4 m/s 757 mmHg 88%
    07:00 -14°C° 0 mm 4 m/s 758 mmHg 89%
    08:00 -14°C° 0 mm 4 m/s 759 mmHg 89%
    09:00 -14°C° 0 mm 4 m/s 759 mmHg 88%
    10:00 -12°C° 0 mm 4 m/s 760 mmHg 88%
    11:00 -12°C° 0 mm 4 m/s 760 mmHg 88%
    12:00 -12°C° 0 mm 4 m/s 761 mmHg 88%
    13:00 -12°C° 0 mm 4 m/s 761 mmHg 88%
    14:00 -12°C° 0 mm 4 m/s 761 mmHg 88%
    15:00 -12°C° 0 mm 4 m/s 762 mmHg 89%
    16:00 -13°C° 0 mm 3 m/s 762 mmHg 90%
    17:00 -13°C° 0 mm 3 m/s 763 mmHg 90%
    18:00 -15°C° 0 mm 3 m/s 763 mmHg 92%
    19:00 -15°C° 0 mm 2 m/s 763 mmHg 94%
    20:00 -17°C° 0 mm 2 m/s 764 mmHg 96%
    21:00 -17°C° 0 mm 2 m/s 764 mmHg 95%
    22:00 -18°C° 0 mm 2 m/s 764 mmHg 95%
    23:00 -16°C° 0 mm 1 m/s 764 mmHg 95%

    23 Februarie, Sâmbătă

    Timp Temperatura Precipitaţii Vânt Presiune Umiditate
    00:00 -17°C° 0 mm 1 m/s 764 mmHg 95%
    01:00 -17°C° 0 mm 0 m/s 763 mmHg 94%
    02:00 -18°C° 0 mm 0 m/s 763 mmHg 94%
    03:00 -18°C° 0 mm 0 m/s 763 mmHg 94%
    04:00 -17°C° 0 mm 1 m/s 762 mmHg 93%
    05:00 -17°C° 0 mm 1 m/s 761 mmHg 93%
    06:00 -18°C° 0 mm 2 m/s 761 mmHg 92%
    07:00 -18°C° 0 mm 3 m/s 760 mmHg 91%
    08:00 -16°C° 0 mm 3 m/s 760 mmHg 90%
    09:00 -16°C° 0.2 mm 4 m/s 759 mmHg 91%
    10:00 -16°C° 0.2 mm 4 m/s 758 mmHg 92%
    11:00 -15°C° 0.2 mm 5 m/s 757 mmHg 94%
    12:00 -14°C° 0.5 mm 5 m/s 755 mmHg 93%
    13:00 -12°C° 0.5 mm 5 m/s 754 mmHg 93%
    14:00 -11°C° 0.5 mm 6 m/s 753 mmHg 92%
    15:00 -10°C° 0.2 mm 5 m/s 753 mmHg 93%
    16:00 -8°C° 0.2 mm 5 m/s 752 mmHg 93%
    17:00 -7°C° 0.2 mm 4 m/s 751 mmHg 94%
    18:00 -7°C° 0.2 mm 4 m/s 751 mmHg 94%
    19:00 -5°C° 0.2 mm 4 m/s 750 mmHg 95%
    20:00 -5°C° 0.2 mm 4 m/s 749 mmHg 95%
    21:00 -3°C° 0.3 mm 4 m/s 749 mmHg 96%
    22:00 -2°C° 0.3 mm 4 m/s 749 mmHg 96%
    23:00 -1°C° 0.3 mm 4 m/s 748 mmHg 96%

    24 Februarie, Duminică

    Timp Temperatura Precipitaţii Vânt Presiune Umiditate
    00:00 -1°C° 0.1 mm 4 m/s 749 mmHg 95%
    01:00 -1°C° 0.1 mm 4 m/s 749 mmHg 94%
    02:00 -1°C° 0.1 mm 5 m/s 749 mmHg 92%
    03:00 -2°C° 0 mm 4 m/s 749 mmHg 92%
    04:00 -2°C° 0 mm 3 m/s 750 mmHg 92%
    05:00 -4°C° 0 mm 3 m/s 750 mmHg 92%
    06:00 -5°C° 0 mm 3 m/s 751 mmHg 93%
    07:00 -4°C° 0 mm 2 m/s 751 mmHg 94%
    08:00 -5°C° 0 mm 2 m/s 752 mmHg 95%
    09:00 -4°C° 0 mm 2 m/s 752 mmHg 96%
    10:00 -3°C° 0 mm 2 m/s 752 mmHg 96%
    11:00 -3°C° 0 mm 2 m/s 752 mmHg 96%
    12:00 -2°C° 0 mm 2 m/s 752 mmHg 96%
    13:00 -2°C° 0 mm 2 m/s 751 mmHg 96%
    14:00 -2°C° 0 mm 2 m/s 751 mmHg 96%
    15:00 -3°C° 0 mm 2 m/s 750 mmHg 96%
    16:00 -4°C° 0 mm 2 m/s 749 mmHg 96%
    17:00 -5°C° 0 mm 2 m/s 749 mmHg 96%
    18:00 -4°C° 0 mm 2 m/s 748 mmHg 96%
    19:00 -5°C° 0 mm 3 m/s 748 mmHg 96%
    20:00 -4°C° 0 mm 3 m/s 747 mmHg 95%
    21:00 -4°C° 0 mm 3 m/s 746 mmHg 95%
    22:00 -4°C° 0 mm 3 m/s 746 mmHg 94%
    23:00 -4°C° 0 mm 3 m/s 745 mmHg 94%

    25 Februarie, Luni

    Timp Temperatura Precipitaţii Vânt Presiune Umiditate
    00:00 -4°C° 0.1 mm 3 m/s 745 mmHg 95%
    01:00 -4°C° 0.1 mm 3 m/s 744 mmHg 96%
    02:00 -4°C° 0.1 mm 3 m/s 744 mmHg 96%
    03:00 -4°C° 0.7 mm 3 m/s 744 mmHg 96%
    04:00 -2°C° 0.7 mm 3 m/s 744 mmHg 95%
    05:00 -1°C° 0.7 mm 3 m/s 744 mmHg 95%
    06:00 -2°C° 0.1 mm 3 m/s 744 mmHg 93%
    07:00 -2°C° 0.1 mm 3 m/s 744 mmHg 91%
    08:00 -3°C° 0.1 mm 4 m/s 744 mmHg 89%
    09:00 -4°C° 0 mm 4 m/s 744 mmHg 90%
    10:00 -4°C° 0 mm 3 m/s 744 mmHg 90%
    11:00 -4°C° 0 mm 3 m/s 744 mmHg 91%
    12:00 -4°C° 0 mm 4 m/s 744 mmHg 90%
    13:00 -3°C° 0 mm 4 m/s 744 mmHg 90%
    14:00 -3°C° 0 mm 4 m/s 744 mmHg 90%
    15:00 -3°C° 0 mm 4 m/s 743 mmHg 90%
    16:00 -3°C° 0 mm 4 m/s 743 mmHg 90%
    17:00 -2°C° 0 mm 3 m/s 742 mmHg 91%
    18:00 -2°C° 0.2 mm 4 m/s 742 mmHg 90%
    19:00 -2°C° 0.2 mm 4 m/s 742 mmHg 89%
    20:00 -2°C° 0.2 mm 4 m/s 742 mmHg 89%
    21:00 -2°C° 0 mm 4 m/s 742 mmHg 89%
    22:00 -2°C° 0 mm 4 m/s 742 mmHg 89%
    23:00 -2°C° 0 mm 4 m/s 742 mmHg 89%
    Arată mai mult